Location: Grand Moustoir
(47.8355°N, 3.3120°W)
Time: 22:14:27
(UTC+00:00)

Cosmos 1953 - Pass Details

Date: 20 January 2020
Orbit: 539 x 558 km, 82.5° (Epoch: 16 February)

Event Time Altitude Azimuth Distance (km) Brightness Sun altitude
Rises 05:09:10 0° 168° (SSE) 2,721 6.0 -27.3°
Reaches altitude 10° 05:11:25 10° 160° (SSE) 1,834 5.2 -26.9°
Maximum altitude 05:15:10 38° 92° (E) 862 3.7 -26.3°
Drops below altitude 10° 05:18:57 10° 24° (NNE) 1,855 5.2 -25.6°
Sets 05:21:14 0° 17° (NNE) 2,757 6.1 -25.3°
